Location: Ladrillo (historical)
(32.8195°N, 117.2231°W)
Time: 19:47:27
(UTC+00:00)

NOAA 18 - Pass Details

Date: 24 April 2021
Orbit: 840 x 861 km, 99.0° (Epoch: 05 May)

Event Time Altitude Azimuth Distance (km) Brightness Sun altitude
Exits shadow 04:44:04 46° 50° (NE) 1,118 5.7 -26.8°
Drops below altitude 10° 04:48:39 10° 359° (N) 2,462 8.1 -27.5°
Sets 04:51:04 0° 354° (N) 3,398 9.0 -27.9°
